Time,TemperatureF,DewpointF,PressureIn,WindDirection,WindDirectionDegrees,WindSpeedMPH,WindSpeedGustMPH,Humidity,HourlyPrecipIn,Conditions,Clouds,dailyrainin,SoftwareType,DateUTC
2013-04-17 00:02:00,52.0,26.0,30.09,NNE,32,1.0,6.0,36,0.00,,,0.00,,2013-04-17 07:02:00,
2013-04-17 00:12:00,52.0,26.0,30.09,NNE,32,1.0,6.0,36,0.00,,,0.00,,2013-04-17 07:12:00,
2013-04-17 00:22:00,52.0,25.0,30.09,NNW,335,4.0,9.0,35,0.00,,,0.00,,2013-04-17 07:22:00,
2013-04-17 00:32:00,51.0,26.0,30.09,NE,40,3.0,8.0,37,0.00,,,0.00,,2013-04-17 07:32:00,
2013-04-17 00:42:00,51.0,26.0,30.09,NE,40,3.0,8.0,37,0.00,,,0.00,,2013-04-17 07:42:00,
2013-04-17 00:52:00,52.0,27.0,30.10,ESE,103,1.0,7.0,37,0.00,,,0.00,,2013-04-17 07:52:00,
2013-04-17 01:02:00,52.0,28.0,30.10,East,81,0.0,5.0,39,0.00,,,0.00,,2013-04-17 08:02:00,
2013-04-17 01:12:00,52.0,28.0,30.10,East,81,0.0,5.0,39,0.00,,,0.00,,2013-04-17 08:12:00,
2013-04-17 01:22:00,52.0,28.0,30.10,East,81,0.0,5.0,39,0.00,,,0.00,,2013-04-17 08:22:00,
2013-04-17 01:32:00,50.0,28.0,30.10,SW,223,1.0,4.0,42,0.00,,,0.00,,2013-04-17 08:32:00,
2013-04-17 01:42:00,50.0,28.0,30.10,SW,223,1.0,4.0,42,0.00,,,0.00,,2013-04-17 08:42:00,
2013-04-17 01:52:00,48.0,30.0,30.11,ESE,120,2.0,8.0,49,0.00,,,0.00,,2013-04-17 08:52:00,
2013-04-17 02:02:00,47.0,29.0,30.11,South,183,2.0,4.0,49,0.00,,,0.00,,2013-04-17 09:02:00,
2013-04-17 02:12:00,47.0,29.0,30.11,South,183,2.0,4.0,49,0.00,,,0.00,,2013-04-17 09:12:00,
2013-04-17 02:22:00,46.0,29.0,30.11,SE,145,2.0,4.0,51,0.00,,,0.00,,2013-04-17 09:22:00,
2013-04-17 02:32:00,45.0,28.0,30.11,NW,305,1.0,5.0,52,0.00,,,0.00,,2013-04-17 09:32:00,
2013-04-17 02:42:00,45.0,28.0,30.11,NW,305,1.0,5.0,52,0.00,,,0.00,,2013-04-17 09:42:00,
2013-04-17 02:52:00,46.0,28.0,30.11,NW,315,1.0,4.0,50,0.00,,,0.00,,2013-04-17 09:52:00,
2013-04-17 03:02:00,46.0,30.0,30.11,WSW,251,0.0,4.0,53,0.00,,,0.00,,2013-04-17 10:02:00,
2013-04-17 03:12:00,46.0,30.0,30.11,WSW,251,0.0,4.0,53,0.00,,,0.00,,2013-04-17 10:12:00,
2013-04-17 03:23:00,46.0,28.0,30.11,WNW,302,2.0,5.0,49,0.00,,,0.00,,2013-04-17 10:23:00,
2013-04-17 03:32:00,47.0,28.0,30.11,ENE,63,1.0,7.0,48,0.00,,,0.00,,2013-04-17 10:32:00,
2013-04-17 03:42:00,47.0,28.0,30.11,ENE,63,1.0,7.0,48,0.00,,,0.00,,2013-04-17 10:42:00,
2013-04-17 03:52:00,47.0,28.0,30.11,ENE,63,1.0,7.0,48,0.00,,,0.00,,2013-04-17 10:52:00,
2013-04-17 04:02:00,47.0,28.0,30.11,NNW,346,2.0,7.0,48,0.00,,,0.00,,2013-04-17 11:02:00,
2013-04-17 04:11:00,47.0,28.0,30.11,NNW,346,2.0,7.0,48,0.00,,,0.00,,2013-04-17 11:11:00,
2013-04-17 04:22:00,46.0,27.0,30.11,NE,36,2.0,4.0,47,0.00,,,0.00,,2013-04-17 11:22:00,
2013-04-17 04:32:00,47.0,28.0,30.11,East,90,2.0,7.0,47,0.00,,,0.00,,2013-04-17 11:32:00,
2013-04-17 04:42:00,47.0,28.0,30.11,East,90,2.0,7.0,47,0.00,,,0.00,,2013-04-17 11:42:00,
2013-04-17 04:52:00,47.0,30.0,30.11,SE,130,1.0,3.0,51,0.00,,,0.00,,2013-04-17 11:52:00,
2013-04-17 05:02:00,45.0,28.0,30.11,NNW,342,2.0,6.0,51,0.00,,,0.00,,2013-04-17 12:02:00,
2013-04-17 05:12:00,45.0,28.0,30.11,NNW,342,2.0,6.0,51,0.00,,,0.00,,2013-04-17 12:12:00,
2013-04-17 05:22:00,46.0,28.0,30.11,North,355,2.0,5.0,49,0.00,,,0.00,,2013-04-17 12:22:00,
2013-04-17 05:32:00,46.0,28.0,30.11,NW,317,1.0,7.0,49,0.00,,,0.00,,2013-04-17 12:32:00,
2013-04-17 05:42:00,46.0,28.0,30.11,NW,317,1.0,7.0,49,0.00,,,0.00,,2013-04-17 12:42:00,
2013-04-17 05:52:00,46.0,29.0,30.12,North,355,0.0,3.0,52,0.00,,,0.00,,2013-04-17 12:52:00,
2013-04-17 06:02:00,45.0,28.0,30.12,ESE,108,2.0,3.0,52,0.00,,,0.00,,2013-04-17 13:02:00,
2013-04-17 06:12:00,45.0,28.0,30.12,ESE,108,2.0,3.0,52,0.00,,,0.00,,2013-04-17 13:12:00,
2013-04-17 06:22:00,45.0,28.0,30.13,NNW,344,1.0,5.0,51,0.00,,,0.00,,2013-04-17 13:22:00,
2013-04-17 06:32:00,46.0,27.0,30.13,NW,315,1.0,7.0,48,0.00,,,0.00,,2013-04-17 13:32:00,
2013-04-17 06:42:00,46.0,27.0,30.13,NW,315,1.0,7.0,48,0.00,,,0.00,,2013-04-17 13:42:00,
2013-04-17 06:52:00,46.0,27.0,30.13,NW,315,1.0,7.0,48,0.00,,,0.00,,2013-04-17 13:52:00,
2013-04-17 07:02:00,48.0,26.0,30.14,NW,315,2.0,10.0,42,0.00,,,0.00,,2013-04-17 14:02:00,
2013-04-17 07:12:00,48.0,26.0,30.14,NW,315,2.0,10.0,42,0.00,,,0.00,,2013-04-17 14:12:00,
2013-04-17 07:22:00,48.0,28.0,30.14,WNW,300,0.0,7.0,45,0.00,,,0.00,,2013-04-17 14:22:00,
2013-04-17 07:32:00,47.0,27.0,30.14,North,355,1.0,5.0,46,0.00,,,0.00,,2013-04-17 14:32:00,
2013-04-17 07:42:00,47.0,27.0,30.14,North,355,1.0,5.0,46,0.00,,,0.00,,2013-04-17 14:42:00,
2013-04-17 07:52:00,47.0,27.0,30.14,North,355,1.0,5.0,46,0.00,,,0.00,,2013-04-17 14:52:00,
2013-04-17 08:02:00,47.0,29.0,30.15,NNE,20,1.0,4.0,49,0.00,,,0.00,,2013-04-17 15:02:00,
2013-04-17 08:12:00,48.0,31.0,30.16,NNW,331,1.0,7.0,51,0.00,,,0.00,,2013-04-17 15:12:00,
2013-04-17 08:22:00,48.0,31.0,30.16,NNW,331,1.0,7.0,51,0.00,,,0.00,,2013-04-17 15:22:00,
2013-04-17 08:33:00,48.0,31.0,30.16,NNW,331,1.0,7.0,51,0.00,,,0.00,,2013-04-17 15:33:00,
2013-04-17 08:42:00,48.0,31.0,30.16,NNW,331,1.0,7.0,51,0.00,,,0.00,,2013-04-17 15:42:00,
2013-04-17 08:52:00,52.0,29.0,30.16,North,355,7.0,15.0,41,0.00,,,0.00,,2013-04-17 15:52:00,
2013-04-17 09:03:00,52.0,29.0,30.16,North,355,7.0,15.0,41,0.00,,,0.00,,2013-04-17 16:03:00,
2013-04-17 09:12:00,52.0,29.0,30.16,North,355,7.0,15.0,41,0.00,,,0.00,,2013-04-17 16:12:00,
2013-04-17 09:22:00,55.0,31.0,30.16,NNW,344,5.0,11.0,39,0.00,,,0.00,,2013-04-17 16:22:00,
2013-04-17 09:32:00,56.0,29.0,30.17,NNW,339,5.0,12.0,35,0.00,,,0.00,,2013-04-17 16:32:00,
2013-04-17 09:42:00,56.0,29.0,30.17,NNW,339,5.0,12.0,35,0.00,,,0.00,,2013-04-17 16:42:00,
2013-04-17 09:52:00,56.0,29.0,30.17,NNW,339,5.0,12.0,35,0.00,,,0.00,,2013-04-17 16:52:00,
2013-04-17 10:02:00,58.0,27.0,30.18,NNE,17,4.0,10.0,30,0.00,,,0.00,,2013-04-17 17:02:00,
2013-04-17 10:12:00,58.0,27.0,30.18,NNE,17,4.0,10.0,30,0.00,,,0.00,,2013-04-17 17:12:00,
2013-04-17 10:22:00,58.0,27.0,30.18,NNE,17,4.0,10.0,30,0.00,,,0.00,,2013-04-17 17:22:00,
2013-04-17 10:33:00,58.0,29.0,30.17,North,351,4.0,10.0,33,0.00,,,0.00,,2013-04-17 17:33:00,
2013-04-17 10:42:00,58.0,29.0,30.17,North,351,4.0,10.0,33,0.00,,,0.00,,2013-04-17 17:42:00,
2013-04-17 10:52:00,60.0,29.0,30.17,NNW,344,5.0,12.0,31,0.00,,,0.00,,2013-04-17 17:52:00,
2013-04-17 11:02:00,59.0,27.0,30.18,North,355,5.0,18.0,29,0.00,,,0.00,,2013-04-17 18:02:00,
2013-04-17 11:12:00,59.0,27.0,30.18,North,355,5.0,18.0,29,0.00,,,0.00,,2013-04-17 18:12:00,
2013-04-17 11:22:00,60.0,29.0,30.18,North,5,6.0,15.0,31,0.00,,,0.00,,2013-04-17 18:22:00,
2013-04-17 11:32:00,60.0,29.0,30.18,North,5,6.0,15.0,31,0.00,,,0.00,,2013-04-17 18:32:00,
2013-04-17 11:42:00,60.0,29.0,30.18,North,5,6.0,15.0,31,0.00,,,0.00,,2013-04-17 18:42:00,
2013-04-17 11:52:00,62.0,29.0,30.18,North,360,7.0,14.0,28,0.00,,,0.00,,2013-04-17 18:52:00,
2013-04-17 12:02:00,62.0,29.0,30.17,North,355,6.0,12.0,28,0.00,,,0.00,,2013-04-17 19:02:00,
2013-04-17 12:12:00,62.0,29.0,30.17,North,355,6.0,12.0,28,0.00,,,0.00,,2013-04-17 19:12:00,
2013-04-17 12:22:00,63.0,29.0,30.17,NNE,31,7.0,18.0,27,0.00,,,0.00,,2013-04-17 19:22:00,
2013-04-17 12:32:00,62.0,28.0,30.17,NNW,348,8.0,12.0,27,0.00,,,0.00,,2013-04-17 19:32:00,
2013-04-17 12:42:00,62.0,28.0,30.17,NNW,348,8.0,12.0,27,0.00,,,0.00,,2013-04-17 19:42:00,
2013-04-17 12:52:00,62.0,28.0,30.17,NNW,348,8.0,12.0,27,0.00,,,0.00,,2013-04-17 19:52:00,
2013-04-17 13:02:00,62.0,28.0,30.17,NNW,348,8.0,12.0,27,0.00,,,0.00,,2013-04-17 20:02:00,
2013-04-17 13:22:00,63.0,29.0,30.16,NNW,330,5.0,14.0,27,0.00,,,0.00,,2013-04-17 20:22:00,
2013-04-17 13:32:00,65.0,25.0,30.16,NNW,336,4.0,15.0,22,0.00,,,0.00,,2013-04-17 20:32:00,
2013-04-17 13:42:00,65.0,25.0,30.16,NNW,336,4.0,15.0,22,0.00,,,0.00,,2013-04-17 20:42:00,
2013-04-17 13:52:00,65.0,28.0,30.15,NNE,15,7.0,18.0,25,0.00,,,0.00,,2013-04-17 20:52:00,
2013-04-17 14:02:00,64.0,28.0,30.15,WNW,292,5.0,13.0,26,0.00,,,0.00,,2013-04-17 21:02:00,
2013-04-17 14:12:00,64.0,28.0,30.15,WNW,292,5.0,13.0,26,0.00,,,0.00,,2013-04-17 21:12:00,
2013-04-17 14:22:00,66.0,28.0,30.14,North,350,7.0,13.0,24,0.00,,,0.00,,2013-04-17 21:22:00,
2013-04-17 14:32:00,65.0,24.0,30.14,North,355,7.0,13.0,21,0.00,,,0.00,,2013-04-17 21:32:00,
2013-04-17 14:42:00,65.0,24.0,30.14,North,355,7.0,13.0,21,0.00,,,0.00,,2013-04-17 21:42:00,
2013-04-17 14:53:00,65.0,24.0,30.14,North,355,7.0,13.0,21,0.00,,,0.00,,2013-04-17 21:53:00,
2013-04-17 15:02:00,66.0,29.0,30.13,NNW,348,5.0,11.0,25,0.00,,,0.00,,2013-04-17 22:02:00,
2013-04-17 15:12:00,66.0,29.0,30.13,NNW,348,5.0,11.0,25,0.00,,,0.00,,2013-04-17 22:12:00,
2013-04-17 15:22:00,67.0,22.0,30.12,NNE,12,5.0,18.0,18,0.00,,,0.00,,2013-04-17 22:22:00,
2013-04-17 15:33:00,68.0,27.0,30.12,NNW,331,5.0,14.0,21,0.00,,,0.00,,2013-04-17 22:33:00,
2013-04-17 15:42:00,68.0,27.0,30.12,NNW,331,5.0,14.0,21,0.00,,,0.00,,2013-04-17 22:42:00,
2013-04-17 15:52:00,68.0,22.0,30.11,NNE,19,8.0,16.0,17,0.00,,,0.00,,2013-04-17 22:52:00,
2013-04-17 16:02:00,67.0,22.0,30.11,NNE,18,7.0,16.0,18,0.00,,,0.00,,2013-04-17 23:02:00,
2013-04-17 16:12:00,67.0,22.0,30.11,NNE,18,7.0,16.0,18,0.00,,,0.00,,2013-04-17 23:12:00,
2013-04-17 16:22:00,68.0,24.0,30.10,North,10,8.0,13.0,19,0.00,,,0.00,,2013-04-17 23:22:00,
2013-04-17 16:32:00,68.0,23.0,30.10,North,351,5.0,13.0,18,0.00,,,0.00,,2013-04-17 23:32:00,
2013-04-17 16:42:00,68.0,23.0,30.10,North,351,5.0,13.0,18,0.00,,,0.00,,2013-04-17 23:42:00,
2013-04-17 16:52:00,68.0,24.0,30.09,NNE,32,5.0,11.0,19,0.00,,,0.00,,2013-04-17 23:52:00,
2013-04-17 17:02:00,67.0,25.0,30.09,WNW,290,2.0,11.0,20,0.00,,,0.00,,2013-04-18 00:02:00,
2013-04-17 17:12:00,67.0,25.0,30.09,WNW,290,2.0,11.0,20,0.00,,,0.00,,2013-04-18 00:12:00,
2013-04-17 17:22:00,68.0,24.0,30.09,NNE,18,5.0,10.0,19,0.00,,,0.00,,2013-04-18 00:22:00,
2013-04-17 17:32:00,67.0,22.0,30.09,NE,53,3.0,11.0,18,0.00,,,0.00,,2013-04-18 00:32:00,
2013-04-17 17:42:00,68.0,23.0,30.08,NNE,19,5.0,10.0,18,0.00,,,0.00,,2013-04-18 00:42:00,
2013-04-17 17:52:00,68.0,23.0,30.08,NNE,19,5.0,10.0,18,0.00,,,0.00,,2013-04-18 00:52:00,
2013-04-17 18:02:00,67.0,25.0,30.09,North,10,5.0,8.0,20,0.00,,,0.00,,2013-04-18 01:02:00,
2013-04-17 18:12:00,67.0,22.0,30.08,NNE,13,6.0,10.0,18,0.00,,,0.00,,2013-04-18 01:12:00,
2013-04-17 18:22:00,67.0,22.0,30.08,NNE,13,6.0,10.0,18,0.00,,,0.00,,2013-04-18 01:22:00,
2013-04-17 18:32:00,66.0,21.0,30.08,ENE,74,5.0,15.0,18,0.00,,,0.00,,2013-04-18 01:32:00,
2013-04-17 18:42:00,66.0,21.0,30.08,ENE,74,5.0,15.0,18,0.00,,,0.00,,2013-04-18 01:42:00,
2013-04-17 18:52:00,66.0,20.0,30.08,NNE,26,5.0,12.0,17,0.00,,,0.00,,2013-04-18 01:52:00,
2013-04-17 19:02:00,65.0,23.0,30.09,NNE,28,3.0,7.0,20,0.00,,,0.00,,2013-04-18 02:02:00,
2013-04-17 19:12:00,65.0,23.0,30.09,NNE,28,3.0,7.0,20,0.00,,,0.00,,2013-04-18 02:12:00,
2013-04-17 19:22:00,65.0,22.0,30.09,ESE,102,1.0,8.0,19,0.00,,,0.00,,2013-04-18 02:22:00,
2013-04-17 19:32:00,64.0,21.0,30.09,NE,52,5.0,10.0,19,0.00,,,0.00,,2013-04-18 02:32:00,
2013-04-17 19:42:00,64.0,21.0,30.09,NE,52,5.0,10.0,19,0.00,,,0.00,,2013-04-18 02:42:00,
2013-04-17 19:52:00,64.0,21.0,30.09,NE,52,5.0,10.0,19,0.00,,,0.00,,2013-04-18 02:52:00,
2013-04-17 20:02:00,63.0,21.0,30.10,NE,56,2.0,6.0,20,0.00,,,0.00,,2013-04-18 03:02:00,
2013-04-17 20:12:00,61.0,23.0,30.10,ENE,59,2.0,6.0,23,0.00,,,0.00,,2013-04-18 03:12:00,
2013-04-17 20:22:00,61.0,23.0,30.10,ENE,59,2.0,6.0,23,0.00,,,0.00,,2013-04-18 03:22:00,
2013-04-17 20:33:00,60.0,21.0,30.10,ESE,109,2.0,4.0,22,0.00,,,0.00,,2013-04-18 03:33:00,
2013-04-17 20:43:00,60.0,21.0,30.10,ESE,109,2.0,4.0,22,0.00,,,0.00,,2013-04-18 03:43:00,
2013-04-17 20:53:00,60.0,21.0,30.10,ESE,109,2.0,4.0,22,0.00,,,0.00,,2013-04-18 03:53:00,
2013-04-17 21:03:00,55.0,26.0,30.11,East,79,1.0,2.0,33,0.00,,,0.00,,2013-04-18 04:03:00,
2013-04-17 21:13:00,55.0,26.0,30.11,East,79,1.0,2.0,33,0.00,,,0.00,,2013-04-18 04:13:00,
2013-04-17 21:23:00,53.0,29.0,30.12,West,279,0.0,2.0,40,0.00,,,0.00,,2013-04-18 04:23:00,
2013-04-17 21:33:00,52.0,33.0,30.12,SSE,163,1.0,3.0,49,0.00,,,0.00,,2013-04-18 04:33:00,
2013-04-17 21:43:00,51.0,35.0,30.13,SSE,163,1.0,3.0,55,0.00,,,0.00,,2013-04-18 04:43:00,
2013-04-17 21:52:00,51.0,35.0,30.13,SSE,163,1.0,3.0,55,0.00,,,0.00,,2013-04-18 04:52:00,
2013-04-17 22:02:00,50.0,35.0,30.13,SE,146,2.0,3.0,56,0.00,,,0.00,,2013-04-18 05:02:00,
2013-04-17 22:12:00,50.0,35.0,30.13,SE,146,2.0,3.0,56,0.00,,,0.00,,2013-04-18 05:12:00,
2013-04-17 22:22:00,50.0,35.0,30.14,SE,139,3.0,-999.0,57,-99.99,,,-99.99,,2013-04-18 05:22:00,
2013-04-17 22:32:00,49.0,34.0,30.14,SE,139,2.0,3.0,57,0.00,,,0.00,,2013-04-18 05:32:00,
2013-04-17 22:42:00,49.0,34.0,30.14,SE,138,2.0,3.0,57,0.00,,,0.00,,2013-04-18 05:42:00,
2013-04-17 22:52:00,49.0,34.0,30.14,SE,138,2.0,3.0,57,0.00,,,0.00,,2013-04-18 05:52:00,
2013-04-17 23:02:00,48.0,35.0,30.14,SE,139,1.0,2.0,61,0.00,,,0.00,,2013-04-18 06:02:00,
2013-04-17 23:12:00,48.0,35.0,30.14,SE,139,1.0,2.0,61,0.00,,,0.00,,2013-04-18 06:12:00,
2013-04-17 23:22:00,48.0,36.0,30.14,SE,142,2.0,3.0,63,0.00,,,0.00,,2013-04-18 06:22:00,
2013-04-17 23:32:00,48.0,36.0,30.14,SE,138,2.0,3.0,62,0.00,,,0.00,,2013-04-18 06:32:00,
2013-04-17 23:42:00,48.0,36.0,30.14,SE,138,2.0,3.0,62,0.00,,,0.00,,2013-04-18 06:42:00,
2013-04-17 23:52:00,48.0,36.0,30.14,SSE,149,1.0,3.0,64,0.00,,,0.00,,2013-04-18 06:52:00,